Regional Weather Roundup
Issued by NWS

Home | Current Version | Previous Version | Graphics & Text | Print | Product List | Glossary On
Versions: 1 2 3 4 5 6 7 8 9 10 11 12 13 14 15 16 17 18 19 20 21 22 23 24 25 26 27 28 29 30 31 32 33 34 35 36 37 38 39 40 41 42 43 44 45 46 47 48 49 50
000
ASUS45 KCYS 280610
RWRWY

WYOMING REGIONAL WEATHER ROUNDUP
NATIONAL WEATHER SERVICE CHEYENNE WY
1200 AM MDT MON JUL 28 2014

NOTE:  "FAIR" INDICATES FEW OR NO CLOUDS BELOW 12,000 FEET
WITH NO SIGNIFICANT WEATHER AND/OR OBSTRUCTIONS TO VISIBILITY.

WYZ001-280700-
YELLOWSTONE NATIONAL PARK

CITY           SKY/WX    TMP DP  RH WIND       PRES   REMARKS
LK YELLOWSTONE   N/A     47  36  65 CALM      30.51S
6HR MIN TEMP:  47; 6HR MAX TEMP:  74;

W YELLOWSTONE  NOT AVBL

$$
WYZ002>013-054>058-071-098>099-280700-
NORTHERN WYOMING

CITY           SKY/WX    TMP DP  RH WIND       PRES   REMARKS
JACKSON        CLEAR     57  36  44 N7        30.36S
CODY           NOT AVBL
GREYBULL       CLEAR     70  42  36 W7        30.22R
6HR MIN TEMP:  70; 6HR MAX TEMP:  92;

WORLAND        CLEAR     73  36  25 SE9       30.24R
6HR MIN TEMP:  72; 6HR MAX TEMP:  92;

SHERIDAN       CLEAR     62  46  55 CALM      30.30S
6HR MIN TEMP:  58; 6HR MAX TEMP:  86;

BUFFALO        CLEAR     64  39  39 SW6       30.38S
6HR MIN TEMP:  62; 6HR MAX TEMP:  84;

GILLETTE       CLEAR     57  43  59 CALM      30.35R
6HR MIN TEMP:  55; 6HR MAX TEMP:  84;

HULETT         FAIR      61  50  67 MISG      30.36
NEWCASTLE      FAIR      61  43  51 SE7       30.34

$$
WYZ014>020-022>026-101>103-280700-
CENTRAL WYOMING

CITY           SKY/WX    TMP DP  RH WIND       PRES   REMARKS
BIG PINEY      CLEAR     58  26  29 N8        30.42S
6HR MIN TEMP:  57; 6HR MAX TEMP:  87;

PINEDALE       CLEAR     50  37  62 W5        30.43S
DUBOIS         FAIR      57  27  30 CALM      30.46R
LANDER         CLEAR     67  31  26 CALM      30.32R
6HR MIN TEMP:  66; 6HR MAX TEMP:  88;

RIVERTON       CLEAR     71  33  24 NE6       30.33R
6HR MIN TEMP:  71; 6HR MAX TEMP:  87;

CASPER         CLEAR     61  45  55 NW3       30.33R
6HR MIN TEMP:  61; 6HR MAX TEMP:  86;

DOUGLAS        CLEAR     67  47  48 SE10      30.35S
6HR MIN TEMP:  66; 6HR MAX TEMP:  85;


$$
WYZ021-027>030-104>119-280700-
SOUTHERN WYOMING

CITY           SKY/WX    TMP DP  RH WIND       PRES   REMARKS
EVANSTON       MOCLDY    70  25  18 S5        30.38S
6HR MIN TEMP:  69; 6HR MAX TEMP:  88;

KEMMERER       CLEAR     66  23  19 N12       30.42R
FORT BRIDGER   FAIR      68  18  15 SE10      30.40S
ROCK SPRINGS   CLEAR     69  35  28 E17       30.38R
6HR MIN TEMP:  68; 6HR MAX TEMP:  88;

DIXON          FAIR      65  42  43 E10       30.38R
RAWLINS        CLEAR     64  53  67 E5        30.41S
6HR MIN TEMP:  64; 6HR MAX TEMP:  86;

SARATOGA       FAIR      63  50  63 S8        30.42F
LARAMIE        CLEAR     59  49  69 SE9       30.46S
6HR MIN TEMP:  59; 6HR MAX TEMP:  70;

CHEYENNE       PTCLDY    64  46  52 SE12      30.42S
6HR MIN TEMP:  63; 6HR MAX TEMP:  77;

TORRINGTON     CLEAR     67  48  50 E13       30.31R
6HR MIN TEMP:  67; 6HR MAX TEMP:  84;

PINE BLUFFS    FAIR      64  45  48 SE8       30.38S

$$



USA.gov is the U.S. government's official web portal to all federal, state and local government web resources and services.